MSR1480 HECA-OKKK

Flight info

Callsign MSR1480
Flight time 2h 0m
Altitude 41000
Route CVO L315 HGD M872 WEJ J874 GAS B417 HFR A788 SOROR
Aircraft A359/H-SDE2E3GHIJ3J4J5LM1ORWXY/LB1D1

Departure

Time 2026-04-29 17:35
Airport Cairo International Airport (HECA)

Arrival

Time 2026-04-29 19:36
Airport Kuwait International Airport (OKKK)
Time Latitude Longitude Altitude Speed Heading
2026-04-29 17:20 30.11324 31.40092 381 ft 0 kts 240°
2026-04-29 17:26 30.11327 31.40099 381 ft 2 kts 238°
2026-04-29 17:26 30.11336 31.40115 381 ft 2 kts 237°
2026-04-29 17:27 30.11345 31.40131 381 ft 2 kts 233°
2026-04-29 17:27 30.11355 31.40145 381 ft 2 kts 227°
2026-04-29 17:27 30.11357 31.40147 381 ft 2 kts 226°
2026-04-29 17:27 30.11369 31.40160 381 ft 2 kts 214°
2026-04-29 17:28 30.11380 31.40167 381 ft 2 kts 200°
2026-04-29 17:28 30.11384 31.40169 381 ft 2 kts 195°
2026-04-29 17:28 30.11398 31.40171 381 ft 1 kts 184°
2026-04-29 17:28 30.11401 31.40171 380 ft 0 kts 188°
2026-04-29 17:30 30.11373 31.40171 381 ft 8 kts 175°
2026-04-29 17:30 30.11323 31.40213 380 ft 9 kts 116°
2026-04-29 17:31 30.11300 31.40298 380 ft 13 kts 107°
2026-04-29 17:31 30.11257 31.40395 380 ft 14 kts 135°
2026-04-29 17:31 30.11179 31.40474 380 ft 17 kts 139°
2026-04-29 17:31 30.11083 31.40571 381 ft 20 kts 139°
2026-04-29 17:32 30.10981 31.40603 381 ft 15 kts 210°
2026-04-29 17:32 30.10904 31.40511 380 ft 17 kts 230°
2026-04-29 17:32 30.10793 31.40364 380 ft 27 kts 229°
2026-04-29 17:32 30.10687 31.40315 380 ft 16 kts 167°
2026-04-29 17:33 30.10597 31.40264 380 ft 15 kts 225°
2026-04-29 17:33 30.10520 31.40164 380 ft 18 kts 230°
2026-04-29 17:33 30.10435 31.40047 380 ft 21 kts 230°
2026-04-29 17:33 30.10337 31.39912 380 ft 23 kts 230°
2026-04-29 17:34 30.10227 31.39765 380 ft 25 kts 229°
2026-04-29 17:34 30.10093 31.39660 380 ft 21 kts 173°
2026-04-29 17:34 30.10002 31.39760 380 ft 17 kts 107°
2026-04-29 17:34 30.10023 31.39894 380 ft 18 kts 57°
2026-04-29 17:35 30.10445 31.40457 381 ft 114 kts 49°
2026-04-29 17:35 30.11373 31.41698 528 ft 182 kts 46°
2026-04-29 17:35 30.12236 31.42820 1153 ft 191 kts 45°
2026-04-29 17:36 30.13183 31.43960 1908 ft 202 kts 42°
2026-04-29 17:36 30.14205 31.45109 2669 ft 205 kts 42°
2026-04-29 17:36 30.15262 31.46298 3183 ft 219 kts 41°
2026-04-29 17:36 30.16582 31.47292 3428 ft 239 kts 14°
2026-04-29 17:37 30.18269 31.47681 3825 ft 254 kts 12°
2026-04-29 17:37 30.19860 31.48623 4381 ft 264 kts 40°
2026-04-29 17:37 30.20916 31.50374 5051 ft 271 kts 68°
2026-04-29 17:37 30.21171 31.52533 5720 ft 276 kts 95°
2026-04-29 17:38 30.20561 31.54635 6343 ft 280 kts 122°
2026-04-29 17:38 30.19389 31.56446 6960 ft 284 kts 133°
2026-04-29 17:38 30.17930 31.58020 7532 ft 288 kts 141°
2026-04-29 17:38 30.16342 31.59449 8209 ft 290 kts 146°
2026-04-29 17:39 30.14153 31.61176 9017 ft 295 kts 149°
2026-04-29 17:39 30.10629 31.63717 10220 ft 304 kts 150°
2026-04-29 17:39 30.06836 31.66406 10701 ft 336 kts 150°
2026-04-29 17:39 30.02698 31.69381 11104 ft 365 kts 149°
2026-04-29 17:40 29.98331 31.72551 11821 ft 379 kts 149°
2026-04-29 17:40 29.93831 31.75823 12691 ft 386 kts 149°
2026-04-29 17:40 29.89238 31.79152 13548 ft 394 kts 149°
2026-04-29 17:40 29.84560 31.82536 14397 ft 399 kts 149°
2026-04-29 17:41 29.79837 31.85949 15217 ft 404 kts 149°
2026-04-29 17:41 29.75107 31.89361 16031 ft 409 kts 149°
2026-04-29 17:41 29.70246 31.92865 16827 ft 415 kts 149°
2026-04-29 17:41 29.65325 31.96408 17637 ft 420 kts 149°
2026-04-29 17:42 29.60335 31.99996 18420 ft 425 kts 149°
2026-04-29 17:42 29.55292 32.03618 19067 ft 431 kts 150°
2026-04-29 17:42 29.50166 32.07295 19731 ft 437 kts 150°
2026-04-29 17:42 29.44972 32.11024 20367 ft 443 kts 151°
2026-04-29 17:43 29.39696 32.14804 20943 ft 450 kts 151°
2026-04-29 17:43 29.34342 32.18624 21595 ft 455 kts 151°
2026-04-29 17:43 29.28942 32.22473 22194 ft 460 kts 152°
2026-04-29 17:43 29.23480 32.26366 22781 ft 465 kts 152°
2026-04-29 17:44 29.17942 32.30308 23356 ft 470 kts 152°
2026-04-29 17:44 29.12372 32.34271 23892 ft 475 kts 152°
2026-04-29 17:44 29.06721 32.38284 24407 ft 479 kts 153°
2026-04-29 17:44 29.01030 32.42320 24935 ft 483 kts 153°
2026-04-29 17:45 28.95288 32.46387 25479 ft 488 kts 153°
2026-04-29 17:45 28.89496 32.50482 26041 ft 492 kts 153°
2026-04-29 17:45 28.83645 32.54618 26613 ft 496 kts 153°
2026-04-29 17:45 28.77752 32.58781 27139 ft 502 kts 153°
2026-04-29 17:46 28.71770 32.62992 27748 ft 506 kts 153°
2026-04-29 17:46 28.65747 32.67225 28384 ft 511 kts 153°
2026-04-29 17:46 28.59665 32.71498 29024 ft 517 kts 153°
2026-04-29 17:46 28.53558 32.75898 29624 ft 525 kts 148°
2026-04-29 17:47 28.48424 32.81902 30344 ft 539 kts 125°
2026-04-29 17:47 28.45675 32.89850 30766 ft 550 kts 98°
2026-04-29 17:47 28.45443 32.98458 31053 ft 557 kts 85°
2026-04-29 17:47 28.45886 33.07314 31319 ft 566 kts 83°
2026-04-29 17:48 28.46375 33.16310 31486 ft 574 kts 84°
2026-04-29 17:48 28.46783 33.25532 31621 ft 578 kts 85°
2026-04-29 17:48 28.47132 33.34671 31827 ft 579 kts 85°
2026-04-29 17:48 28.47460 33.43675 32084 ft 578 kts 85°
2026-04-29 17:49 28.47793 33.52794 32318 ft 578 kts 85°
2026-04-29 17:49 28.48119 33.61803 32565 ft 577 kts 85°
2026-04-29 17:49 28.48339 33.67932 32766 ft 577 kts 85°
2026-04-29 17:49 28.48500 33.72484 32923 ft 577 kts 85°
2026-04-29 17:50 28.48660 33.77036 33136 ft 576 kts 85°
2026-04-29 17:50 28.48810 33.81587 33361 ft 576 kts 86°
2026-04-29 17:50 28.48961 33.86139 33547 ft 577 kts 85°
2026-04-29 17:50 28.49116 33.90693 33712 ft 577 kts 86°
2026-04-29 17:51 28.49271 33.95253 33918 ft 576 kts 86°
2026-04-29 17:51 28.49426 33.99803 34116 ft 577 kts 86°
2026-04-29 17:51 28.49580 34.04367 34268 ft 577 kts 86°
2026-04-29 17:51 28.49733 34.08924 34416 ft 577 kts 86°
2026-04-29 17:52 28.49882 34.13479 34542 ft 577 kts 86°
2026-04-29 17:52 28.49979 34.16493 34656 ft 576 kts 86°
2026-04-29 17:52 28.50172 34.22584 34837 ft 576 kts 86°
2026-04-29 17:52 28.50315 34.27142 34941 ft 577 kts 86°
2026-04-29 17:53 28.50444 34.31688 35325 ft 572 kts 87°
2026-04-29 17:53 28.50127 34.36171 35809 ft 567 kts 101°
2026-04-29 17:53 28.49070 34.40462 36133 ft 562 kts 111°
2026-04-29 17:53 28.47699 34.44617 36378 ft 562 kts 113°
2026-04-29 17:54 28.46268 34.48751 36670 ft 562 kts 114°
2026-04-29 17:54 28.44842 34.52880 36997 ft 561 kts 114°
2026-04-29 17:54 28.43424 34.57004 37313 ft 560 kts 114°
2026-04-29 17:54 28.42011 34.61126 37614 ft 560 kts 114°
2026-04-29 17:55 28.40602 34.65250 37932 ft 560 kts 114°
2026-04-29 17:55 28.39198 34.69370 38248 ft 559 kts 114°
2026-04-29 17:55 28.37801 34.73484 38537 ft 559 kts 114°
2026-04-29 17:55 28.36413 34.77604 38751 ft 559 kts 114°
2026-04-29 17:56 28.35037 34.81725 38972 ft 559 kts 114°
2026-04-29 17:56 28.33681 34.85803 39168 ft 559 kts 114°
2026-04-29 17:56 28.32311 34.89935 39379 ft 559 kts 114°
2026-04-29 17:56 28.30948 34.94065 39559 ft 559 kts 114°
2026-04-29 17:57 28.29588 34.98186 39804 ft 558 kts 114°
2026-04-29 17:57 28.28230 35.02308 40008 ft 557 kts 114°
2026-04-29 17:57 28.26879 35.06430 40205 ft 557 kts 114°
2026-04-29 17:57 28.25967 35.09215 40334 ft 557 kts 114°
2026-04-29 17:58 28.24185 35.14673 40601 ft 557 kts 114°
2026-04-29 17:58 28.22843 35.18794 40787 ft 557 kts 114°
2026-04-29 17:58 28.21504 35.22915 40908 ft 557 kts 114°
2026-04-29 17:59 28.18842 35.31163 40938 ft 557 kts 113°
2026-04-29 17:59 28.16192 35.39421 40953 ft 558 kts 113°
2026-04-29 18:00 28.13542 35.47675 40965 ft 558 kts 113°
2026-04-29 18:00 28.10905 35.55943 40968 ft 559 kts 114°
2026-04-29 18:01 28.08275 35.64238 40978 ft 559 kts 113°
2026-04-29 18:01 28.05652 35.72525 40977 ft 559 kts 113°
2026-04-29 18:02 28.03042 35.80818 40986 ft 560 kts 113°
2026-04-29 18:02 28.00452 35.89125 40991 ft 560 kts 113°
2026-04-29 18:03 27.97891 35.97350 40990 ft 559 kts 113°
2026-04-29 18:03 27.95302 36.05651 40993 ft 560 kts 113°
2026-04-29 18:04 27.93151 36.12545 40993 ft 560 kts 113°
2026-04-29 18:04 27.90559 36.20850 40993 ft 560 kts 113°
2026-04-29 18:05 27.87564 36.30501 40993 ft 560 kts 113°
2026-04-29 18:05 27.85422 36.37466 40990 ft 560 kts 113°
2026-04-29 18:06 27.82869 36.45778 40988 ft 560 kts 113°
2026-04-29 18:06 27.80319 36.54100 40985 ft 561 kts 113°
2026-04-29 18:07 27.77796 36.62431 40987 ft 561 kts 113°
2026-04-29 18:07 27.75272 36.70761 40988 ft 561 kts 113°
2026-04-29 18:08 27.72775 36.79043 40980 ft 561 kts 113°
2026-04-29 18:08 27.70291 36.87396 40990 ft 562 kts 113°
2026-04-29 18:09 27.67810 36.95751 40986 ft 562 kts 113°
2026-04-29 18:09 27.65329 37.04108 40980 ft 562 kts 113°
2026-04-29 18:10 27.62861 37.12463 40982 ft 561 kts 113°
2026-04-29 18:10 27.61424 37.21142 40978 ft 572 kts 89°
2026-04-29 18:10 27.61991 37.25575 40969 ft 573 kts 74°
2026-04-29 18:11 27.63255 37.29840 40975 ft 573 kts 68°
2026-04-29 18:11 27.66237 37.38189 40961 ft 575 kts 66°
2026-04-29 18:12 27.69279 37.46533 40959 ft 575 kts 66°
2026-04-29 18:12 27.71938 37.55046 40949 ft 576 kts 73°
2026-04-29 18:13 27.73483 37.63911 40947 ft 575 kts 83°
2026-04-29 18:13 27.74490 37.72868 40927 ft 575 kts 85°
2026-04-29 18:14 27.75370 37.81852 40940 ft 575 kts 85°
2026-04-29 18:14 27.76210 37.90345 40955 ft 575 kts 85°
2026-04-29 18:15 27.77078 37.98920 40939 ft 576 kts 85°
2026-04-29 18:15 27.77994 38.07911 40946 ft 576 kts 85°
2026-04-29 18:16 27.78906 38.16901 40944 ft 576 kts 85°
2026-04-29 18:16 27.79810 38.25894 40940 ft 577 kts 85°
2026-04-29 18:17 27.80708 38.34895 40939 ft 577 kts 85°
2026-04-29 18:17 27.81601 38.43906 40963 ft 577 kts 85°
2026-04-29 18:17 27.82038 38.48345 41798 ft 575 kts 84°
2026-04-29 18:18 27.82476 38.52802 40777 ft 569 kts 85°
2026-04-29 18:18 27.82911 38.57243 40893 ft 569 kts 85°
2026-04-29 18:18 27.83346 38.61697 40949 ft 573 kts 85°
2026-04-29 18:19 27.84219 38.70694 40939 ft 578 kts 85°
2026-04-29 18:19 27.85091 38.79728 40953 ft 578 kts 85°
2026-04-29 18:20 27.85956 38.88758 40957 ft 578 kts 85°
2026-04-29 18:20 27.86816 38.97793 40983 ft 579 kts 86°
2026-04-29 18:21 27.87664 39.06775 40964 ft 579 kts 86°
2026-04-29 18:21 27.88513 39.15824 40957 ft 579 kts 86°
2026-04-29 18:22 27.89356 39.24889 40966 ft 580 kts 86°
2026-04-29 18:22 27.90194 39.33949 40970 ft 580 kts 86°
2026-04-29 18:23 27.91026 39.43014 40978 ft 579 kts 86°
2026-04-29 18:23 27.91852 39.52073 41002 ft 580 kts 86°
2026-04-29 18:24 27.92672 39.61138 40974 ft 579 kts 86°
2026-04-29 18:24 27.93485 39.70202 40983 ft 579 kts 86°
2026-04-29 18:25 27.94293 39.79263 40987 ft 579 kts 86°
2026-04-29 18:25 27.95094 39.88321 40988 ft 578 kts 86°
2026-04-29 18:26 27.95888 39.97368 40989 ft 578 kts 86°
2026-04-29 18:26 27.96677 40.06421 40990 ft 578 kts 86°
2026-04-29 18:27 27.97458 40.15455 40989 ft 577 kts 87°
2026-04-29 18:27 27.98234 40.24493 40996 ft 577 kts 87°
2026-04-29 18:28 27.99003 40.33530 40996 ft 576 kts 87°
2026-04-29 18:28 27.99764 40.42555 40993 ft 576 kts 87°
2026-04-29 18:29 28.00519 40.51580 40994 ft 576 kts 87°
2026-04-29 18:29 28.01269 40.60602 41001 ft 576 kts 87°
2026-04-29 18:30 28.02013 40.69636 41005 ft 576 kts 87°
2026-04-29 18:30 28.02752 40.78669 41004 ft 576 kts 87°
2026-04-29 18:31 28.03486 40.87704 41008 ft 577 kts 87°
2026-04-29 18:31 28.04213 40.96741 41011 ft 576 kts 88°
2026-04-29 18:32 28.04929 41.05708 41014 ft 576 kts 88°
2026-04-29 18:32 28.05999 41.19260 41017 ft 577 kts 88°
2026-04-29 18:33 28.06705 41.28302 41020 ft 576 kts 88°
2026-04-29 18:33 28.07406 41.37340 41008 ft 576 kts 88°
2026-04-29 18:34 28.07983 41.44848 41016 ft 575 kts 88°
2026-04-29 18:34 28.08787 41.55398 41011 ft 575 kts 88°
2026-04-29 18:35 28.09468 41.64428 41007 ft 576 kts 88°
2026-04-29 18:35 28.10144 41.73460 41006 ft 576 kts 88°
2026-04-29 18:36 28.10814 41.82497 41004 ft 576 kts 88°
2026-04-29 18:36 28.12328 41.91390 41004 ft 580 kts 67°
2026-04-29 18:37 28.14270 41.95373 40998 ft 577 kts 51°
2026-04-29 18:37 28.16921 41.98740 41010 ft 570 kts 38°
2026-04-29 18:37 28.23050 42.04415 40998 ft 570 kts 33°
2026-04-29 18:38 28.29309 42.09936 40999 ft 570 kts 33°
2026-04-29 18:38 28.35579 42.15462 40997 ft 570 kts 33°
2026-04-29 18:39 28.41844 42.20986 40977 ft 570 kts 33°
2026-04-29 18:39 28.48081 42.26471 40997 ft 570 kts 33°
2026-04-29 18:40 28.54352 42.31997 40994 ft 571 kts 33°
2026-04-29 18:40 28.60572 42.37621 40982 ft 575 kts 40°
2026-04-29 18:41 28.66018 42.49591 40992 ft 575 kts 86°
2026-04-29 18:41 28.66110 42.54100 40990 ft 565 kts 101°
2026-04-29 18:42 28.65308 42.58417 40988 ft 551 kts 117°
2026-04-29 18:42 28.63869 42.62419 40956 ft 544 kts 123°
2026-04-29 18:42 28.60604 42.70170 40980 ft 543 kts 124°
2026-04-29 18:43 28.57299 42.77889 40980 ft 542 kts 124°
2026-04-29 18:43 28.54711 42.86051 40980 ft 560 kts 107°
2026-04-29 18:44 28.53802 42.94910 40976 ft 568 kts 98°
2026-04-29 18:44 28.53435 43.03891 40964 ft 569 kts 97°
2026-04-29 18:45 28.53190 43.12889 40967 ft 566 kts 101°
2026-04-29 18:45 28.52395 43.17199 40976 ft 550 kts 117°
2026-04-29 18:45 28.50788 43.21049 40975 ft 530 kts 132°
2026-04-29 18:46 28.48535 43.24173 40963 ft 508 kts 147°
2026-04-29 18:46 28.45757 43.26481 40966 ft 484 kts 163°
2026-04-29 18:46 28.42701 43.27805 40969 ft 460 kts 178°
2026-04-29 18:46 28.39599 43.28100 40971 ft 438 kts 193°
2026-04-29 18:47 28.36694 43.27391 40971 ft 420 kts 208°
2026-04-29 18:47 28.34142 43.25884 40982 ft 409 kts 221°
2026-04-29 18:47 28.32170 43.23616 40960 ft 402 kts 237°
2026-04-29 18:47 28.30952 43.20772 40978 ft 403 kts 252°
2026-04-29 18:48 28.30598 43.17603 40975 ft 412 kts 268°
2026-04-29 18:48 28.31153 43.14371 40974 ft 426 kts 283°
2026-04-29 18:48 28.32594 43.11363 40971 ft 446 kts 298°
2026-04-29 18:48 28.34845 43.08828 40978 ft 468 kts 314°
2026-04-29 18:49 28.37587 43.07077 40977 ft 491 kts 328°
2026-04-29 18:49 28.40866 43.05835 40975 ft 501 kts 334°
2026-04-29 18:49 28.44295 43.04943 40971 ft 513 kts 341°
2026-04-29 18:49 28.47928 43.04599 40974 ft 527 kts 351°
2026-04-29 18:50 28.51624 43.04993 40978 ft 542 kts
2026-04-29 18:50 28.55284 43.06220 40977 ft 555 kts 16°
2026-04-29 18:50 28.58727 43.08293 40976 ft 567 kts 29°
2026-04-29 18:50 28.61794 43.11158 40995 ft 575 kts 43°
2026-04-29 18:51 28.64320 43.14702 40980 ft 580 kts 56°
2026-04-29 18:51 28.66146 43.18720 40973 ft 580 kts 71°
2026-04-29 18:51 28.67920 43.27613 40965 ft 573 kts 91°
2026-04-29 18:52 28.67800 43.32105 40977 ft 562 kts 105°
2026-04-29 18:52 28.66817 43.36332 40973 ft 545 kts 120°
2026-04-29 18:52 28.65116 43.40106 40976 ft 531 kts 130°
2026-04-29 18:52 28.63111 43.43617 40945 ft 528 kts 134°
2026-04-29 18:53 28.59065 43.50618 40967 ft 540 kts 123°
2026-04-29 18:53 28.57809 43.54705 40964 ft 556 kts 108°
2026-04-29 18:53 28.57403 43.59126 40982 ft 568 kts 94°
2026-04-29 18:54 28.57902 43.68147 40956 ft 574 kts 89°
2026-04-29 18:54 28.58999 43.81974 40963 ft 574 kts 89°
2026-04-29 18:55 28.59608 43.99898 40971 ft 564 kts 101°
2026-04-29 18:55 28.57811 44.17538 40969 ft 560 kts 104°
2026-04-29 18:56 28.56145 44.32652 40964 ft 560 kts 103°
2026-04-29 18:56 28.55199 44.41436 40965 ft 560 kts 103°
2026-04-29 18:57 28.54250 44.50222 40961 ft 559 kts 104°
2026-04-29 18:57 28.53297 44.58990 40963 ft 559 kts 104°
2026-04-29 18:58 28.52336 44.67765 40962 ft 558 kts 104°
2026-04-29 18:58 28.51371 44.76517 40963 ft 558 kts 104°
2026-04-29 18:59 28.50401 44.85262 40963 ft 557 kts 104°
2026-04-29 18:59 28.49527 44.93091 40983 ft 558 kts 104°
2026-04-29 19:00 28.48546 45.01836 40959 ft 558 kts 104°
2026-04-29 19:00 28.47559 45.10591 40967 ft 558 kts 104°
2026-04-29 19:01 28.46569 45.19324 40964 ft 557 kts 104°
2026-04-29 19:01 28.45571 45.28058 40966 ft 557 kts 105°
2026-04-29 19:02 28.44567 45.36799 40968 ft 558 kts 105°
2026-04-29 19:02 28.43558 45.45540 40940 ft 558 kts 104°
2026-04-29 19:03 28.42548 45.54230 40971 ft 558 kts 104°
2026-04-29 19:03 28.41536 45.62936 40962 ft 547 kts 105°
2026-04-29 19:04 28.41052 45.67159 40964 ft 531 kts 105°
2026-04-29 19:04 28.40581 45.71261 40964 ft 516 kts 105°
2026-04-29 19:04 28.40120 45.75243 40963 ft 501 kts 105°
2026-04-29 19:04 28.39669 45.79105 40955 ft 486 kts 106°
2026-04-29 19:05 28.39227 45.82856 40965 ft 475 kts 107°
2026-04-29 19:05 28.38783 45.86555 40961 ft 471 kts 107°
2026-04-29 19:05 28.37885 45.93909 40986 ft 469 kts 107°
2026-04-29 19:06 28.36993 46.01248 40991 ft 469 kts 107°
2026-04-29 19:06 28.36104 46.08637 40750 ft 482 kts 105°
2026-04-29 19:07 28.35999 46.12523 40534 ft 505 kts 92°
2026-04-29 19:07 28.36220 46.15178 40388 ft 515 kts 89°
2026-04-29 19:07 28.36886 46.20669 40094 ft 533 kts 86°
2026-04-29 19:07 28.37492 46.24874 39907 ft 546 kts 85°
2026-04-29 19:08 28.38141 46.29170 39709 ft 558 kts 85°
2026-04-29 19:08 28.38806 46.33558 39530 ft 569 kts 85°
2026-04-29 19:08 28.39475 46.38030 39332 ft 578 kts 85°
2026-04-29 19:08 28.40140 46.42543 39066 ft 579 kts 85°
2026-04-29 19:09 28.40797 46.47057 38853 ft 580 kts 85°
2026-04-29 19:09 28.41437 46.51512 38631 ft 580 kts 86°
2026-04-29 19:09 28.42089 46.56098 38359 ft 581 kts 86°
2026-04-29 19:09 28.42720 46.60567 38101 ft 581 kts 86°
2026-04-29 19:10 28.43358 46.65108 37835 ft 582 kts 86°
2026-04-29 19:10 28.43995 46.69656 37581 ft 584 kts 86°
2026-04-29 19:10 28.44633 46.74211 37330 ft 585 kts 86°
2026-04-29 19:10 28.45272 46.78782 37060 ft 585 kts 85°
2026-04-29 19:11 28.45908 46.83334 36442 ft 582 kts 85°
2026-04-29 19:11 28.46542 46.87874 35733 ft 582 kts 85°
2026-04-29 19:11 28.47175 46.92421 34979 ft 583 kts 85°
2026-04-29 19:11 28.47804 46.96982 34220 ft 585 kts 85°
2026-04-29 19:12 28.48434 47.01566 33245 ft 589 kts 85°
2026-04-29 19:12 28.49068 47.06181 32312 ft 591 kts 85°
2026-04-29 19:12 28.49701 47.10800 31378 ft 592 kts 84°
2026-04-29 19:12 28.50130 47.13926 30774 ft 592 kts 84°
2026-04-29 19:13 28.50967 47.20042 29582 ft 590 kts 84°
2026-04-29 19:13 28.51593 47.24629 28703 ft 584 kts 84°
2026-04-29 19:13 28.52212 47.29173 27923 ft 577 kts 84°
2026-04-29 19:13 28.52821 47.33653 27217 ft 570 kts 84°
2026-04-29 19:14 28.53419 47.38074 26576 ft 561 kts 84°
2026-04-29 19:14 28.54003 47.42394 26310 ft 545 kts 84°
2026-04-29 19:14 28.54569 47.46590 26060 ft 530 kts 84°
2026-04-29 19:14 28.55114 47.50629 25814 ft 501 kts 84°
2026-04-29 19:15 28.55625 47.54423 25569 ft 472 kts 84°
2026-04-29 19:15 28.56106 47.58007 25317 ft 446 kts 84°
2026-04-29 19:15 28.56559 47.61404 25116 ft 423 kts 84°
2026-04-29 19:15 28.56988 47.64674 24980 ft 412 kts 85°
2026-04-29 19:16 28.57214 47.67900 24620 ft 407 kts 92°
2026-04-29 19:16 28.57296 47.71111 24245 ft 405 kts 92°
2026-04-29 19:16 28.57359 47.74312 23858 ft 404 kts 92°
2026-04-29 19:16 28.57424 47.77495 23468 ft 402 kts 92°
2026-04-29 19:17 28.57491 47.80661 23033 ft 399 kts 92°
2026-04-29 19:17 28.57559 47.83806 22671 ft 396 kts 92°
2026-04-29 19:17 28.57627 47.86878 22830 ft 392 kts 92°
2026-04-29 19:17 28.57695 47.89939 21925 ft 383 kts 92°
2026-04-29 19:18 28.57761 47.92962 21508 ft 382 kts 92°
2026-04-29 19:18 28.57804 47.94958 21257 ft 380 kts 92°
2026-04-29 19:18 28.58122 47.98965 20873 ft 385 kts 78°
2026-04-29 19:18 28.58948 48.01873 20543 ft 387 kts 71°
2026-04-29 19:19 28.59912 48.04737 20050 ft 387 kts 70°
2026-04-29 19:19 28.60883 48.07584 19601 ft 385 kts 70°
2026-04-29 19:19 28.61958 48.10316 19164 ft 383 kts 59°
2026-04-29 19:19 28.63728 48.12526 18747 ft 376 kts 33°
2026-04-29 19:20 28.66056 48.13744 18360 ft 365 kts
2026-04-29 19:20 28.68557 48.13788 17894 ft 350 kts 342°
2026-04-29 19:20 28.70685 48.12715 17401 ft 333 kts 317°
2026-04-29 19:20 28.72356 48.10963 17036 ft 323 kts 310°
2026-04-29 19:21 28.74185 48.09504 16824 ft 319 kts 326°
2026-04-29 19:21 28.76141 48.08453 16541 ft 302 kts 330°
2026-04-29 19:21 28.78027 48.07539 16184 ft 288 kts 330°
2026-04-29 19:21 28.79856 48.06672 15662 ft 282 kts 330°
2026-04-29 19:22 28.81657 48.05824 15132 ft 277 kts 330°
2026-04-29 19:22 28.83418 48.05003 14694 ft 270 kts 330°
2026-04-29 19:22 28.85149 48.04197 14349 ft 269 kts 330°
2026-04-29 19:22 28.86880 48.03389 13829 ft 267 kts 330°
2026-04-29 19:23 28.88586 48.02598 13322 ft 262 kts 330°
2026-04-29 19:23 28.90268 48.01818 12753 ft 260 kts 330°
2026-04-29 19:23 28.91941 48.01045 12149 ft 259 kts 330°
2026-04-29 19:23 28.93627 48.00261 11687 ft 263 kts 330°
2026-04-29 19:24 28.95308 47.99480 11385 ft 258 kts 331°
2026-04-29 19:24 28.96959 47.98715 10939 ft 256 kts 331°
2026-04-29 19:24 28.98609 47.97948 10463 ft 256 kts 331°
2026-04-29 19:24 29.00258 47.97181 10003 ft 256 kts 332°
2026-04-29 19:25 29.01902 47.96418 9557 ft 254 kts 332°
2026-04-29 19:25 29.03518 47.95671 9161 ft 248 kts 332°
2026-04-29 19:25 29.05099 47.94923 8736 ft 244 kts 330°
2026-04-29 19:25 29.06642 47.94138 8268 ft 241 kts 330°
2026-04-29 19:26 29.08167 47.93353 7841 ft 239 kts 330°
2026-04-29 19:26 29.09678 47.92580 7422 ft 237 kts 330°
2026-04-29 19:26 29.11172 47.91820 7017 ft 234 kts 331°
2026-04-29 19:26 29.12648 47.91071 6618 ft 230 kts 331°
2026-04-29 19:27 29.14106 47.90332 6205 ft 228 kts 331°
2026-04-29 19:27 29.15460 47.89448 5730 ft 222 kts 315°
2026-04-29 19:27 29.16449 47.88162 5322 ft 217 kts 305°
2026-04-29 19:27 29.17327 47.86772 4879 ft 214 kts 304°
2026-04-29 19:28 29.18169 47.85375 4446 ft 212 kts 304°
2026-04-29 19:28 29.18990 47.83974 4088 ft 212 kts 304°
2026-04-29 19:28 29.19826 47.82568 3937 ft 214 kts 308°
2026-04-29 19:28 29.21009 47.81560 3643 ft 213 kts 336°
2026-04-29 19:29 29.22411 47.81020 3185 ft 212 kts 343°
2026-04-29 19:29 29.23827 47.80560 2989 ft 212 kts 343°
2026-04-29 19:29 29.25245 47.80106 2972 ft 211 kts 344°
2026-04-29 19:29 29.26661 47.79646 2971 ft 211 kts 343°
2026-04-29 19:30 29.28074 47.79184 2977 ft 211 kts 343°
2026-04-29 19:30 29.29485 47.78727 2981 ft 210 kts 343°
2026-04-29 19:30 29.30901 47.78304 2971 ft 210 kts 349°
2026-04-29 19:30 29.32345 47.78528 2921 ft 214 kts 21°
2026-04-29 19:31 29.33481 47.79613 2494 ft 218 kts 52°
2026-04-29 19:31 29.34187 47.81149 2105 ft 218 kts 63°
2026-04-29 19:31 29.34794 47.82758 1978 ft 222 kts 63°
2026-04-29 19:31 29.35392 47.84384 1977 ft 221 kts 63°
2026-04-29 19:32 29.35981 47.86004 1975 ft 220 kts 64°
2026-04-29 19:32 29.36531 47.87601 1967 ft 208 kts 68°
2026-04-29 19:32 29.36629 47.89230 1974 ft 206 kts 92°
2026-04-29 19:32 29.36098 47.90774 1991 ft 211 kts 119°
2026-04-29 19:33 29.35274 47.92164 1986 ft 211 kts 123°
2026-04-29 19:33 29.34410 47.93524 1987 ft 211 kts 123°
2026-04-29 19:33 29.33337 47.94655 1912 ft 210 kts 151°
2026-04-29 19:33 29.31932 47.95036 1547 ft 209 kts 179°
2026-04-29 19:34 29.30471 47.95030 1197 ft 210 kts 183°
2026-04-29 19:34 29.29052 47.94959 1014 ft 196 kts 184°
2026-04-29 19:34 29.27784 47.94881 967 ft 170 kts 184°
2026-04-29 19:34 29.26642 47.94918 801 ft 162 kts 171°
2026-04-29 19:35 29.25594 47.95340 485 ft 161 kts 158°
2026-04-29 19:35 29.24517 47.95912 313 ft 167 kts 156°
2026-04-29 19:35 29.23526 47.96442 191 ft 148 kts 159°
2026-04-29 19:35 29.22861 47.96787 204 ft 78 kts 156°
2026-04-29 19:36 29.22408 47.97026 199 ft 67 kts 155°
2026-04-29 19:36 29.22025 47.97236 211 ft 54 kts 148°
2026-04-29 19:36 29.21936 47.97394 198 ft 18 kts 106°
2026-04-29 19:36 29.21940 47.97486 203 ft 10 kts 59°
2026-04-29 19:37 29.21988 47.97504 204 ft 4 kts 352°
2026-04-29 19:37 29.21994 47.97499 204 ft 4 kts 332°
2026-04-29 19:37 29.22077 47.97449 204 ft 12 kts 333°
2026-04-29 19:37 29.22163 47.97401 199 ft 16 kts 335°
2026-04-29 19:38 29.22276 47.97341 194 ft 20 kts 336°
2026-04-29 19:38 29.22389 47.97282 186 ft 23 kts 335°
2026-04-29 19:38 29.22551 47.97197 181 ft 27 kts 335°
2026-04-29 19:38 29.22734 47.97100 179 ft 31 kts 335°
2026-04-29 19:39 29.22937 47.96993 176 ft 34 kts 335°
2026-04-29 19:39 29.23138 47.96887 174 ft 30 kts 335°
2026-04-29 19:39 29.23341 47.96781 171 ft 34 kts 335°
2026-04-29 19:39 29.23531 47.96680 168 ft 25 kts 334°
2026-04-29 19:40 29.23641 47.96646 165 ft 9 kts 24°
2026-04-29 19:40 29.23671 47.96702 164 ft 10 kts 72°
2026-04-29 19:40 29.23702 47.96792 163 ft 14 kts 65°
2026-04-29 19:40 29.23752 47.96912 162 ft 19 kts 64°
2026-04-29 19:41 29.23854 47.96991 160 ft 16 kts 20°
2026-04-29 19:41 29.23897 47.97009 160 ft 0 kts 20°